Location: ??
(35.5653°N, 139.6194°E)
Time: 07:41:23
(UTC+00:00)

Okean O Rocket - Pass Details

Date: 20 November 2019
Orbit: 622 x 645 km, 98.2° (Epoch: 12 December)

Event Time Altitude Azimuth Distance (km) Brightness Sun altitude
Rises 19:48:10 0° 19° (NNE) 2,907 5.1 -19.0°
Reaches altitude 10° 19:50:26 10° 26° (NNE) 1,997 4.3 -18.6°
Maximum altitude 19:54:36 45° 99° (E) 847 2.7 -17.8°
Drops below altitude 10° 19:58:46 10° 173° (S) 1,991 4.4 -16.9°
Sets 20:01:01 0° 180° (S) 2,896 5.2 -16.5°
